ANA1213 RJFF-ROAH

Flight info

Callsign ANA1213
Flight time 1h 23m
Altitude 36000
Route YAMGA VEMRA Y506 HKC Y45 ONC Y525 IHEYA
Aircraft B738/M-SDE2E3FGHIRWXY/LB1

Departure

Time 2026-04-29 08:01
Airport Fukuoka Airport (RJFF)

Arrival

Time 2026-04-29 09:24
Airport Naha International Airport (ROAH)
Time Latitude Longitude Altitude Speed Heading
2026-04-29 07:04 33.59510 130.44873 23 ft 0 kts 51°
2026-04-29 07:45 33.59501 130.44860 23 ft 2 kts 54°
2026-04-29 07:46 33.59492 130.44843 5 ft 2 kts 58°
2026-04-29 07:46 33.59484 130.44826 42 ft 2 kts 66°
2026-04-29 07:46 33.59478 130.44808 30 ft 2 kts 86°
2026-04-29 07:46 33.59479 130.44794 34 ft 0 kts 120°
2026-04-29 07:47 33.59485 130.44785 23 ft 2 kts 142°
2026-04-29 07:47 33.59488 130.44783 27 ft 0 kts 145°
2026-04-29 07:47 33.59488 130.44782 27 ft 0 kts 146°
2026-04-29 07:51 33.59488 130.44783 27 ft 0 kts 146°
2026-04-29 07:51 33.59487 130.44783 27 ft 0 kts 146°
2026-04-29 07:52 33.59486 130.44783 27 ft 0 kts 146°
2026-04-29 07:52 33.59486 130.44784 23 ft 0 kts 146°
2026-04-29 07:52 33.59485 130.44785 23 ft 0 kts 146°
2026-04-29 07:52 33.59484 130.44785 23 ft 0 kts 146°
2026-04-29 07:53 33.59483 130.44786 23 ft 0 kts 146°
2026-04-29 07:53 33.59483 130.44787 23 ft 0 kts 146°
2026-04-29 07:53 33.59482 130.44787 23 ft 0 kts 146°
2026-04-29 07:53 33.59460 130.44803 25 ft 9 kts 152°
2026-04-29 07:54 33.59378 130.44778 25 ft 17 kts 195°
2026-04-29 07:54 33.59256 130.44852 25 ft 19 kts 151°
2026-04-29 07:54 33.59140 130.44930 25 ft 19 kts 150°
2026-04-29 07:54 33.59028 130.45004 30 ft 18 kts 150°
2026-04-29 07:55 33.58919 130.45076 27 ft 17 kts 152°
2026-04-29 07:55 33.58815 130.45146 28 ft 17 kts 150°
2026-04-29 07:55 33.58715 130.45214 29 ft 16 kts 150°
2026-04-29 07:55 33.58619 130.45281 29 ft 16 kts 150°
2026-04-29 07:56 33.58528 130.45345 30 ft 15 kts 149°
2026-04-29 07:56 33.58440 130.45406 31 ft 14 kts 151°
2026-04-29 07:56 33.58354 130.45463 31 ft 14 kts 151°
2026-04-29 07:56 33.58272 130.45517 30 ft 13 kts 151°
2026-04-29 07:57 33.58193 130.45569 33 ft 13 kts 150°
2026-04-29 07:57 33.58117 130.45621 33 ft 12 kts 150°
2026-04-29 07:57 33.58044 130.45672 34 ft 12 kts 150°
2026-04-29 07:57 33.57972 130.45722 35 ft 12 kts 149°
2026-04-29 07:58 33.57902 130.45772 35 ft 11 kts 148°
2026-04-29 07:58 33.57834 130.45820 36 ft 11 kts 150°
2026-04-29 07:58 33.57767 130.45865 36 ft 11 kts 150°
2026-04-29 07:58 33.57703 130.45911 37 ft 11 kts 149°
2026-04-29 07:59 33.57636 130.45941 38 ft 10 kts 156°
2026-04-29 07:59 33.57570 130.45939 37 ft 10 kts 221°
2026-04-29 07:59 33.57535 130.45868 38 ft 10 kts 246°
2026-04-29 07:59 33.57541 130.45792 39 ft 9 kts 303°
2026-04-29 08:00 33.57560 130.45772 39 ft 0 kts 327°
2026-04-29 08:00 33.57574 130.45762 39 ft 20 kts 327°
2026-04-29 08:00 33.57994 130.45474 35 ft 116 kts 330°
2026-04-29 08:00 33.58920 130.44836 85 ft 190 kts 330°
2026-04-29 08:01 33.60140 130.43989 752 ft 209 kts 332°
2026-04-29 08:01 33.61438 130.43117 1549 ft 217 kts 332°
2026-04-29 08:01 33.62766 130.42215 2387 ft 221 kts 332°
2026-04-29 08:01 33.64121 130.41360 3213 ft 211 kts 341°
2026-04-29 08:02 33.65529 130.41349 3874 ft 203 kts 17°
2026-04-29 08:02 33.66738 130.42206 4496 ft 210 kts 42°
2026-04-29 08:02 33.67609 130.43659 5096 ft 220 kts 58°
2026-04-29 08:02 33.68389 130.45291 5675 ft 230 kts 58°
2026-04-29 08:03 33.69160 130.46986 6209 ft 234 kts 67°
2026-04-29 08:03 33.69328 130.48929 6685 ft 239 kts 106°
2026-04-29 08:03 33.68510 130.50622 7206 ft 234 kts 144°
2026-04-29 08:03 33.67161 130.51675 7786 ft 230 kts 156°
2026-04-29 08:04 33.65763 130.52611 8375 ft 237 kts 156°
2026-04-29 08:04 33.64291 130.53597 9020 ft 247 kts 157°
2026-04-29 08:04 33.62721 130.54491 9758 ft 252 kts 163°
2026-04-29 08:04 33.61081 130.55298 10463 ft 257 kts 164°
2026-04-29 08:05 33.59406 130.56111 11178 ft 261 kts 164°
2026-04-29 08:05 33.57731 130.56928 11932 ft 265 kts 165°
2026-04-29 08:05 33.56015 130.57774 12741 ft 268 kts 165°
2026-04-29 08:05 33.54284 130.58638 13563 ft 270 kts 165°
2026-04-29 08:06 33.52541 130.59512 14292 ft 272 kts 166°
2026-04-29 08:06 33.50727 130.60415 14524 ft 297 kts 165°
2026-04-29 08:06 33.48752 130.61402 14678 ft 313 kts 163°
2026-04-29 08:06 33.46669 130.62453 14833 ft 336 kts 165°
2026-04-29 08:07 33.44433 130.63564 14977 ft 355 kts 164°
2026-04-29 08:07 33.42147 130.64560 15018 ft 353 kts 170°
2026-04-29 08:07 33.39781 130.65352 15019 ft 353 kts 172°
2026-04-29 08:07 33.37409 130.66096 15024 ft 352 kts 172°
2026-04-29 08:08 33.35043 130.66849 15023 ft 352 kts 172°
2026-04-29 08:08 33.32683 130.67625 15026 ft 351 kts 171°
2026-04-29 08:08 33.30317 130.68417 15017 ft 352 kts 171°
2026-04-29 08:08 33.27963 130.69210 15028 ft 352 kts 172°
2026-04-29 08:09 33.25592 130.70007 15018 ft 353 kts 172°
2026-04-29 08:09 33.23245 130.70799 15027 ft 354 kts 171°
2026-04-29 08:09 33.20874 130.71602 15020 ft 354 kts 171°
2026-04-29 08:09 33.18497 130.72405 15023 ft 355 kts 171°
2026-04-29 08:10 33.16120 130.73207 15005 ft 353 kts 171°
2026-04-29 08:10 33.13746 130.74024 15069 ft 362 kts 171°
2026-04-29 08:10 33.11267 130.74841 15445 ft 373 kts 173°
2026-04-29 08:10 33.08722 130.75132 16044 ft 363 kts 191°
2026-04-29 08:11 33.06234 130.74797 16955 ft 355 kts 194°
2026-04-29 08:11 33.03777 130.74447 17702 ft 359 kts 194°
2026-04-29 08:11 33.01286 130.74125 18175 ft 367 kts 193°
2026-04-29 08:11 32.98742 130.73815 18782 ft 369 kts 193°
2026-04-29 08:12 32.96173 130.73506 19305 ft 373 kts 193°
2026-04-29 08:12 32.93576 130.73194 19801 ft 377 kts 193°
2026-04-29 08:12 32.90955 130.72879 20330 ft 380 kts 193°
2026-04-29 08:12 32.88312 130.72558 20844 ft 383 kts 193°
2026-04-29 08:13 32.85648 130.72229 21044 ft 384 kts 193°
2026-04-29 08:13 32.82981 130.71902 21074 ft 385 kts 193°
2026-04-29 08:13 32.80335 130.71576 21071 ft 387 kts 193°
2026-04-29 08:13 32.77662 130.71249 21084 ft 387 kts 193°
2026-04-29 08:14 32.74949 130.70913 21157 ft 397 kts 193°
2026-04-29 08:14 32.72152 130.70563 21248 ft 409 kts 193°
2026-04-29 08:14 32.69278 130.70206 21311 ft 420 kts 192°
2026-04-29 08:14 32.67338 130.69968 21358 ft 427 kts 193°
2026-04-29 08:15 32.64360 130.69603 21576 ft 432 kts 192°
2026-04-29 08:15 32.61368 130.69242 22040 ft 431 kts 192°
2026-04-29 08:15 32.58396 130.68886 22599 ft 428 kts 192°
2026-04-29 08:15 32.55449 130.68532 23185 ft 424 kts 193°
2026-04-29 08:16 32.51569 130.68063 23907 ft 421 kts 193°
2026-04-29 08:16 32.49630 130.67826 24164 ft 420 kts 193°
2026-04-29 08:16 32.46709 130.67453 24484 ft 422 kts 193°
2026-04-29 08:16 32.43784 130.67097 24930 ft 421 kts 192°
2026-04-29 08:17 32.40872 130.66755 25399 ft 420 kts 193°
2026-04-29 08:17 32.37963 130.66407 25872 ft 419 kts 193°
2026-04-29 08:17 32.35069 130.66056 26282 ft 418 kts 193°
2026-04-29 08:17 32.32174 130.65701 26691 ft 418 kts 193°
2026-04-29 08:18 32.29285 130.65348 27187 ft 416 kts 193°
2026-04-29 08:18 32.26407 130.64999 27673 ft 414 kts 193°
2026-04-29 08:18 32.23541 130.64654 28141 ft 413 kts 193°
2026-04-29 08:18 32.20713 130.64314 28657 ft 412 kts 193°
2026-04-29 08:19 32.17857 130.63973 29072 ft 412 kts 193°
2026-04-29 08:19 32.15002 130.63632 29552 ft 412 kts 194°
2026-04-29 08:19 32.12155 130.63291 30077 ft 410 kts 194°
2026-04-29 08:19 32.09318 130.62952 30514 ft 409 kts 194°
2026-04-29 08:20 32.06484 130.62613 30897 ft 409 kts 194°
2026-04-29 08:20 32.03684 130.62279 31299 ft 408 kts 194°
2026-04-29 08:20 32.00861 130.61942 31694 ft 408 kts 194°
2026-04-29 08:20 31.98005 130.61598 31782 ft 416 kts 194°
2026-04-29 08:21 31.92133 130.60901 31986 ft 429 kts 193°
2026-04-29 08:21 31.89147 130.60555 32195 ft 432 kts 193°
2026-04-29 08:21 31.86152 130.60210 32546 ft 432 kts 193°
2026-04-29 08:22 31.83170 130.59867 32998 ft 428 kts 193°
2026-04-29 08:22 31.80246 130.59530 33416 ft 427 kts 193°
2026-04-29 08:22 31.77275 130.59182 33592 ft 430 kts 193°
2026-04-29 08:22 31.74270 130.58829 33719 ft 435 kts 193°
2026-04-29 08:23 31.71245 130.58453 33894 ft 436 kts 196°
2026-04-29 08:23 31.68305 130.57717 34134 ft 427 kts 204°
2026-04-29 08:23 31.65551 130.56501 34470 ft 420 kts 209°
2026-04-29 08:23 31.62874 130.55221 34826 ft 419 kts 208°
2026-04-29 08:24 31.60167 130.53958 35102 ft 419 kts 208°
2026-04-29 08:24 31.57439 130.52722 35350 ft 420 kts 208°
2026-04-29 08:24 31.54710 130.51519 35625 ft 419 kts 207°
2026-04-29 08:24 31.51975 130.50323 35922 ft 418 kts 207°
2026-04-29 08:25 31.49242 130.49129 36047 ft 421 kts 207°
2026-04-29 08:25 31.46478 130.47916 36046 ft 424 kts 208°
2026-04-29 08:25 31.40993 130.45511 36061 ft 421 kts 208°
2026-04-29 08:26 31.35548 130.43122 36051 ft 416 kts 208°
2026-04-29 08:26 31.30130 130.40742 36048 ft 415 kts 208°
2026-04-29 08:27 31.24736 130.38337 36057 ft 413 kts 209°
2026-04-29 08:27 31.19409 130.35812 36055 ft 413 kts 209°
2026-04-29 08:28 31.14102 130.33298 36042 ft 414 kts 209°
2026-04-29 08:28 31.08747 130.30784 36056 ft 415 kts 209°
2026-04-29 08:29 31.03370 130.28272 36054 ft 417 kts 208°
2026-04-29 08:29 30.98000 130.25774 36053 ft 418 kts 208°
2026-04-29 08:30 30.89870 130.21996 36055 ft 420 kts 208°
2026-04-29 08:31 30.84440 130.19475 36057 ft 420 kts 208°
2026-04-29 08:31 30.78992 130.16948 36030 ft 421 kts 208°
2026-04-29 08:32 30.73574 130.14438 36047 ft 420 kts 208°
2026-04-29 08:32 30.68128 130.11918 36055 ft 420 kts 208°
2026-04-29 08:33 30.62692 130.09405 36054 ft 420 kts 208°
2026-04-29 08:33 30.57253 130.06896 36050 ft 420 kts 208°
2026-04-29 08:34 30.51847 130.04438 36053 ft 420 kts 208°
2026-04-29 08:34 30.46400 130.01976 36064 ft 420 kts 208°
2026-04-29 08:35 30.40955 129.99511 36031 ft 419 kts 208°
2026-04-29 08:35 30.35519 129.97053 36048 ft 419 kts 208°
2026-04-29 08:36 30.30044 129.94676 36052 ft 420 kts 207°
2026-04-29 08:36 30.24535 129.92409 36049 ft 420 kts 206°
2026-04-29 08:37 30.19062 129.90150 36042 ft 420 kts 206°
2026-04-29 08:37 30.13559 129.87865 36051 ft 420 kts 207°
2026-04-29 08:38 30.08060 129.85579 36053 ft 420 kts 207°
2026-04-29 08:38 30.02560 129.83296 36033 ft 420 kts 206°
2026-04-29 08:39 29.97112 129.80962 36045 ft 419 kts 208°
2026-04-29 08:39 29.91708 129.78450 36052 ft 418 kts 209°
2026-04-29 08:40 29.86298 129.75924 36045 ft 419 kts 208°
2026-04-29 08:40 29.80927 129.73442 36042 ft 419 kts 208°
2026-04-29 08:41 29.75508 129.70953 36053 ft 419 kts 208°
2026-04-29 08:41 29.70092 129.68470 36056 ft 419 kts 208°
2026-04-29 08:42 29.64668 129.65986 36045 ft 419 kts 208°
2026-04-29 08:42 29.59278 129.63520 36046 ft 419 kts 208°
2026-04-29 08:43 29.53844 129.61037 36052 ft 419 kts 208°
2026-04-29 08:43 29.48415 129.58559 36051 ft 419 kts 208°
2026-04-29 08:44 29.42985 129.56085 36045 ft 419 kts 208°
2026-04-29 08:44 29.37590 129.53625 36044 ft 420 kts 208°
2026-04-29 08:45 29.32152 129.51174 36041 ft 421 kts 207°
2026-04-29 08:45 29.26626 129.48917 36023 ft 422 kts 205°
2026-04-29 08:46 29.21075 129.46699 36042 ft 422 kts 205°
2026-04-29 08:46 29.15526 129.44456 36045 ft 422 kts 205°
2026-04-29 08:47 29.10019 129.42216 36038 ft 423 kts 206°
2026-04-29 08:47 29.04460 129.39955 36029 ft 424 kts 205°
2026-04-29 08:48 28.98896 129.37700 36037 ft 424 kts 205°
2026-04-29 08:48 28.93366 129.35324 36035 ft 424 kts 206°
2026-04-29 08:49 28.87864 129.32881 36021 ft 425 kts 206°
2026-04-29 08:49 28.82383 129.30461 36031 ft 425 kts 206°
2026-04-29 08:50 28.76855 129.28036 36033 ft 426 kts 206°
2026-04-29 08:50 28.71316 129.25615 36030 ft 426 kts 206°
2026-04-29 08:51 28.65771 129.23194 36015 ft 426 kts 206°
2026-04-29 08:51 28.60236 129.20779 36029 ft 426 kts 206°
2026-04-29 08:52 28.54731 129.18380 36028 ft 426 kts 206°
2026-04-29 08:52 28.49191 129.15967 36020 ft 426 kts 206°
2026-04-29 08:53 28.43642 129.13554 36024 ft 426 kts 206°
2026-04-29 08:53 28.38132 129.11155 36030 ft 426 kts 206°
2026-04-29 08:54 28.32587 129.08739 36026 ft 426 kts 206°
2026-04-29 08:54 28.27042 129.06327 36016 ft 426 kts 206°
2026-04-29 08:55 28.21491 129.03914 36026 ft 427 kts 206°
2026-04-29 08:55 28.15975 129.01520 36023 ft 427 kts 206°
2026-04-29 08:56 28.10440 128.99035 36021 ft 427 kts 207°
2026-04-29 08:56 28.04929 128.96504 36025 ft 427 kts 207°
2026-04-29 08:57 27.99437 128.93997 36025 ft 428 kts 207°
2026-04-29 08:57 27.93901 128.91481 36026 ft 429 kts 207°
2026-04-29 08:58 27.88351 128.88981 36014 ft 430 kts 206°
2026-04-29 08:58 27.82737 128.86591 36020 ft 431 kts 206°
2026-04-29 08:59 27.77151 128.84240 36020 ft 429 kts 206°
2026-04-29 08:59 27.74394 128.83078 35873 ft 418 kts 206°
2026-04-29 08:59 27.71683 128.81932 35415 ft 415 kts 206°
2026-04-29 08:59 27.68977 128.80782 34782 ft 417 kts 206°
2026-04-29 09:00 27.66246 128.79618 34089 ft 421 kts 206°
2026-04-29 09:00 27.63487 128.78444 33345 ft 424 kts 206°
2026-04-29 09:00 27.60712 128.77266 32563 ft 428 kts 205°
2026-04-29 09:00 27.57912 128.76079 31736 ft 432 kts 205°
2026-04-29 09:01 27.55081 128.74881 30935 ft 436 kts 205°
2026-04-29 09:01 27.52266 128.73689 30164 ft 439 kts 205°
2026-04-29 09:01 27.49392 128.72475 29261 ft 441 kts 205°
2026-04-29 09:01 27.46557 128.71158 28306 ft 440 kts 211°
2026-04-29 09:02 27.44030 128.69244 27281 ft 439 kts 223°
2026-04-29 09:02 27.41842 128.66845 26327 ft 439 kts 231°
2026-04-29 09:02 27.40079 128.64045 25382 ft 439 kts 240°
2026-04-29 09:02 27.38542 128.61070 24524 ft 439 kts 240°
2026-04-29 09:03 27.37024 128.58101 23837 ft 435 kts 240°
2026-04-29 09:03 27.36023 128.56151 23374 ft 432 kts 240°
2026-04-29 09:03 27.34518 128.53240 22613 ft 427 kts 240°
2026-04-29 09:03 27.33019 128.50363 21773 ft 424 kts 240°
2026-04-29 09:04 27.31521 128.47505 20802 ft 425 kts 239°
2026-04-29 09:04 27.30007 128.44629 19883 ft 425 kts 239°
2026-04-29 09:04 27.28547 128.41863 19680 ft 407 kts 239°
2026-04-29 09:04 27.27127 128.39175 19521 ft 390 kts 239°
2026-04-29 09:05 27.25757 128.36581 19050 ft 383 kts 239°
2026-04-29 09:05 27.24398 128.34010 18415 ft 382 kts 239°
2026-04-29 09:05 27.23038 128.31439 17728 ft 380 kts 239°
2026-04-29 09:05 27.21693 128.28897 17116 ft 376 kts 239°
2026-04-29 09:06 27.20363 128.26384 16549 ft 371 kts 239°
2026-04-29 09:06 27.19046 128.23898 16188 ft 371 kts 239°
2026-04-29 09:06 27.17738 128.21428 16076 ft 371 kts 239°
2026-04-29 09:06 27.16418 128.18937 16017 ft 369 kts 239°
2026-04-29 09:07 27.15107 128.16466 16012 ft 367 kts 239°
2026-04-29 09:07 27.13829 128.14058 15993 ft 351 kts 239°
2026-04-29 09:07 27.12606 128.11756 15979 ft 334 kts 239°
2026-04-29 09:07 27.11442 128.09570 15897 ft 320 kts 239°
2026-04-29 09:08 27.10322 128.07479 15798 ft 303 kts 239°
2026-04-29 09:08 27.09264 128.05508 15672 ft 288 kts 239°
2026-04-29 09:08 27.08241 128.03601 15439 ft 283 kts 239°
2026-04-29 09:08 27.07242 128.01740 15127 ft 281 kts 239°
2026-04-29 09:09 27.06232 127.99857 14795 ft 281 kts 238°
2026-04-29 09:09 27.05234 127.97997 14635 ft 271 kts 238°
2026-04-29 09:09 27.04288 127.96234 14424 ft 259 kts 238°
2026-04-29 09:09 27.03363 127.94512 14036 ft 257 kts 238°
2026-04-29 09:10 27.02433 127.92782 13668 ft 259 kts 238°
2026-04-29 09:10 27.01485 127.91073 13369 ft 257 kts 232°
2026-04-29 09:10 27.00157 127.89740 13071 ft 257 kts 214°
2026-04-29 09:10 26.98623 127.88776 12789 ft 256 kts 210°
2026-04-29 09:11 26.97030 127.87879 12479 ft 256 kts 209°
2026-04-29 09:11 26.95436 127.86997 12185 ft 255 kts 209°
2026-04-29 09:11 26.93850 127.86116 11899 ft 254 kts 209°
2026-04-29 09:11 26.92275 127.85235 11617 ft 253 kts 209°
2026-04-29 09:12 26.90707 127.84353 11337 ft 252 kts 209°
2026-04-29 09:12 26.89147 127.83472 11068 ft 251 kts 209°
2026-04-29 09:12 26.87590 127.82590 10805 ft 250 kts 210°
2026-04-29 09:12 26.86045 127.81713 10553 ft 249 kts 210°
2026-04-29 09:13 26.84503 127.80838 10328 ft 247 kts 210°
2026-04-29 09:13 26.82970 127.79966 10069 ft 247 kts 210°
2026-04-29 09:13 26.81437 127.79095 9791 ft 247 kts 210°
2026-04-29 09:13 26.79917 127.78230 9530 ft 246 kts 210°
2026-04-29 09:14 26.78418 127.77379 9467 ft 237 kts 210°
2026-04-29 09:14 26.76962 127.76551 9288 ft 233 kts 209°
2026-04-29 09:14 26.75516 127.75729 9043 ft 233 kts 209°
2026-04-29 09:14 26.74071 127.74907 8805 ft 232 kts 209°
2026-04-29 09:15 26.72648 127.74098 8566 ft 232 kts 209°
2026-04-29 09:15 26.71209 127.73281 8346 ft 231 kts 209°
2026-04-29 09:15 26.69775 127.72467 8137 ft 230 kts 209°
2026-04-29 09:15 26.68347 127.71657 7914 ft 229 kts 209°
2026-04-29 09:16 26.66927 127.70852 7710 ft 228 kts 209°
2026-04-29 09:16 26.65511 127.70050 7482 ft 227 kts 208°
2026-04-29 09:16 26.64104 127.69254 7249 ft 226 kts 208°
2026-04-29 09:16 26.62700 127.68460 7028 ft 225 kts 208°
2026-04-29 09:17 26.61300 127.67668 6784 ft 226 kts 208°
2026-04-29 09:17 26.59898 127.66875 6561 ft 225 kts 208°
2026-04-29 09:17 26.58523 127.66097 6374 ft 223 kts 208°
2026-04-29 09:17 26.57138 127.65313 6151 ft 222 kts 208°
2026-04-29 09:18 26.55764 127.64537 5940 ft 221 kts 207°
2026-04-29 09:18 26.54398 127.63766 5777 ft 219 kts 208°
2026-04-29 09:18 26.53038 127.63000 5651 ft 217 kts 207°
2026-04-29 09:18 26.51672 127.62226 5367 ft 221 kts 207°
2026-04-29 09:19 26.50308 127.61464 5270 ft 217 kts 203°
2026-04-29 09:19 26.48850 127.61242 5135 ft 218 kts 176°
2026-04-29 09:19 26.47358 127.61416 5096 ft 214 kts 181°
2026-04-29 09:19 26.45867 127.61416 4916 ft 214 kts 182°
2026-04-29 09:20 26.44358 127.61516 4595 ft 223 kts 179°
2026-04-29 09:20 26.42770 127.61655 4149 ft 234 kts 178°
2026-04-29 09:20 26.41120 127.61806 3701 ft 238 kts 178°
2026-04-29 09:20 26.39489 127.61946 3264 ft 238 kts 177°
2026-04-29 09:21 26.37840 127.62080 2827 ft 237 kts 177°
2026-04-29 09:21 26.36194 127.62210 2367 ft 237 kts 176°
2026-04-29 09:21 26.34550 127.62338 1922 ft 235 kts 175°
2026-04-29 09:21 26.32923 127.62455 1483 ft 234 kts 175°
2026-04-29 09:22 26.31327 127.62605 1268 ft 224 kts 174°
2026-04-29 09:22 26.29820 127.62711 1208 ft 211 kts 175°
2026-04-29 09:22 26.28401 127.62793 1177 ft 197 kts 175°
2026-04-29 09:22 26.27085 127.62868 1167 ft 181 kts 175°
2026-04-29 09:23 26.25853 127.62940 1125 ft 177 kts 175°
2026-04-29 09:23 26.24629 127.63012 888 ft 172 kts 174°
2026-04-29 09:23 26.23450 127.63081 677 ft 171 kts 174°
2026-04-29 09:23 26.22253 127.63151 461 ft 173 kts 173°
2026-04-29 09:24 26.21064 127.63220 252 ft 170 kts 173°
2026-04-29 09:24 26.19871 127.63283 43 ft 171 kts 174°
2026-04-29 09:24 26.18797 127.63356 19 ft 109 kts 178°
2026-04-29 09:24 26.18391 127.63346 22 ft 46 kts 179°
2026-04-29 09:25 26.18154 127.63357 25 ft 41 kts 177°
2026-04-29 09:25 26.17975 127.63404 23 ft 25 kts 127°
2026-04-29 09:25 26.18033 127.63553 22 ft 32 kts 13°
2026-04-29 09:25 26.18301 127.63515 22 ft 10 kts 356°
2026-04-29 09:26 26.18408 127.63521 22 ft 24 kts 349°
2026-04-29 09:26 26.18570 127.63506 21 ft 23 kts 359°
2026-04-29 09:26 26.18727 127.63505 21 ft 22 kts
2026-04-29 09:26 26.18879 127.63504 21 ft 22 kts 358°
2026-04-29 09:27 26.19027 127.63497 21 ft 21 kts 357°
2026-04-29 09:27 26.19171 127.63487 21 ft 20 kts 357°
2026-04-29 09:27 26.19310 127.63493 21 ft 20 kts
2026-04-29 09:27 26.19444 127.63482 21 ft 19 kts 353°
2026-04-29 09:28 26.19573 127.63474 22 ft 18 kts
2026-04-29 09:28 26.19699 127.63467 21 ft 18 kts 355°
2026-04-29 09:28 26.19821 127.63461 22 ft 17 kts 358°
2026-04-29 09:28 26.19939 127.63456 22 ft 17 kts 356°
2026-04-29 09:29 26.20052 127.63448 21 ft 16 kts 358°
2026-04-29 09:29 26.20219 127.63529 21 ft 15 kts 84°
2026-04-29 09:29 26.20225 127.63641 21 ft 14 kts 87°
2026-04-29 09:30 26.20229 127.63747 21 ft 13 kts 87°
2026-04-29 09:30 26.20243 127.63848 22 ft 13 kts 64°
2026-04-29 09:30 26.20307 127.63913 21 ft 13 kts 49°
2026-04-29 09:30 26.20322 127.64007 21 ft 12 kts 87°
2026-04-29 09:31 26.20325 127.64102 21 ft 12 kts 91°
2026-04-29 09:31 26.20326 127.64195 21 ft 12 kts 88°
2026-04-29 09:31 26.20338 127.64283 23 ft 11 kts 61°
2026-04-29 09:31 26.20404 127.64322 21 ft 11 kts 360°
2026-04-29 09:32 26.20480 127.64321 21 ft 11 kts 359°
2026-04-29 09:32 26.20555 127.64319 21 ft 11 kts
2026-04-29 09:32 26.20608 127.64362 21 ft 10 kts 80°
2026-04-29 09:32 26.20616 127.64439 22 ft 10 kts 84°
2026-04-29 09:33 26.20621 127.64515 23 ft 10 kts 87°
2026-04-29 09:33 26.20623 127.64589 23 ft 9 kts 88°
2026-04-29 09:33 26.20624 127.64636 23 ft 10 kts 89°
2026-04-29 09:34 26.20624 127.64642 22 ft 10 kts 89°
2026-04-29 09:34 26.20628 127.64721 21 ft 10 kts 84°
2026-04-29 09:34 26.20664 127.64785 21 ft 10 kts 45°
2026-04-29 09:35 26.20708 127.64844 21 ft 9 kts 47°
2026-04-29 09:35 26.20722 127.64861 21 ft 1 kts 47°
2026-04-29 09:35 26.20722 127.64862 21 ft 0 kts 47°
2026-04-29 09:36 26.20723 127.64862 21 ft 0 kts 47°